Location: Malcolm X Square
(37.7810°N, 122.4297°W)
Time: 23:45:00
(UTC+00:00)

YAOGAN 6 - Pass Details

Date: 13 April 2024
Orbit: 415 x 435 km, 97.2° (Epoch: 21 May)

Event Time Altitude Azimuth Distance (km) Brightness Sun altitude
Rises 12:04:14 0° 5° (N) 2,392 6.6 -17.9°
Reaches altitude 10° 12:06:16 10° 0° (N) 1,526 5.4 -17.6°
Maximum altitude 12:09:26 50° 284° (WNW) 558 2.5 -17.0°
Enters shadow 12:09:52 46° 255° (WSW) 591 2.5 -16.9°
